Tracking 23758 objects as of 28-Oct-2021
HD Live streaming from Space Station
objects crossing your sky now

SL-8 DEB

Track SL-8 DEB now!
10-day predictions


NORAD ID: 22025
Int'l Code: 1991-009CJ
Perigee: 1,436.3 km
Apogee: 1,664.1 km
Inclination: 73.9 °
Period: 116.9 minutes
Semi major axis: 7921 km
RCS: 0.0299 m2 (small)
Launch date: February 12, 1991
Source: Commonwealth of Independent States (former USSR) (CIS)
Launch site: PLESETSK MISSILE AND SPACE COMPLEX (PKMTR)

Note: This is SATELLITE DEBRIS
aabbcc
Your satellite tracking list
Your tracking list is empty




NASA's NSSDC Master Catalog

Two Line Element Set (TLE):
1 22025U 91009CJ  21300.01213913  .00000006  00000-0  17602-3 0  9991
2 22025  73.9371 129.4399 0143848 291.8340 226.6903 12.31448893376765
Source of the keplerian elements: AFSPC